Kara-Kulja Village

Kyrgyzstan     40˚37′56″N   73˚35′25″E
temp.,
°C
wind,
m/s
gust,
m/s
humid.,
%
clouds,
%
prec.,
mm/h
press.,
hPa
HPBL,
m
28 november, sat
sat2800:00+1˚se1255100 0.0 102522
03:00+1˚sse1154100 0.0 102522
06:00+1˚se1160100 0.0 102622
09:00−1˚wsw1488100 0.3 1031192
12:00−1˚nw23100100 8.8 1035186
15:00−1˚nne1199100 3.4 1036149
18:00−3˚e1190100 3.6 103921
21:00−4˚se2287100 0.2 104130
29 november, sun
sun2900:00−5˚ese2373100 0.3 104224
03:00−6˚ese236656 0.0 104121
06:00−7˚se236533 0.0 104221
09:00−6˚ese23640 0.0 104222
12:00−1˚wnw00750 0.0 1038116
15:00−1˚w11830 0.0 103550
18:00−6˚ese11710 0.0 103721
21:00−6˚ese22591 0.0 103821
30 november, mon
mon3000:00−6˚ese23521 0.0 103722
03:00−6˚ese33510 0.0 103722
06:00−6˚ese33500 0.0 103624
09:00−6˚ese34530 0.0 103628
12:00se01740 0.0 103324
15:00nw007512 0.0 103021
18:00−3˚e225548 0.0 103122
21:00−3˚ese3352100 0.0 103125
1 december, tue
tue100:00−3˚ese3451100 0.0 102829
03:00−2˚ese2354100 0.0 102722
06:00ese2357100 0.0 102522
09:00−1˚n0168100 0.2 102621
12:00+1˚nne1197100 0.7 102622
15:00−1˚nnw0197100 0.5 1026104
18:00−1˚ne2292100 0.8 102835
21:00e1293100 0.2 103026
2 december, wed
wed200:00+1˚e1284100 0.3 103124
03:00se1180100 0.0 103122
06:00−1˚se1275100 0.0 103222
09:00−1˚se336879 0.0 103231
12:00+2˚s119289 0.0 103022
15:00+3˚ene0194100 0.0 102722
18:00ese117695 0.0 102922
21:00se2365100 0.0 103023